Regional Weather Roundup
Issued by NWS Wakefield, VA

Home | Current Version | Previous Version | Text Only | Print | Product List | Glossary Off
Versions: 1 2 3 4 5 6 7 8 9 10 11 12 13 14 15 16 17 18 19 20 21 22 23 24 25 26 27 28 29 30 31 32 33 34 35 36 37 38 39 40 41 42 43 44 45 46 47 48 49 50

000
ASUS41 KAKQ 191110
RWRAKQ

REGIONAL WEATHER ROUNDUP
NATIONAL WEATHER SERVICE WAKEFIELD VA
600 AM EST FRI DEC 19 2014

Note: "fair" indicates few or no clouds below 12,000 feet with no
significant weather and/or obstructions to visibility. * = Denotes
station may not report precipitation (e.g., rain,snow,etc.),
thunder or fog.

VAZ042-051-052>054-056-191200-
NORTHERN VIRGINIA

CITY           SKY/WX    TMP DP  RH WIND       PRES   REMARKS
WASH NATIONAL  CLOUDY    37  21  52 NW7       30.13S
DULLES         MOCLDY    32  22  66 NW10      30.12S WCI  24
FORT BELVOIR   CLOUDY    35  22  59 NW7       30.13S
QUANTICO       MOCLDY    35  21  56 N8        30.15R
FREDERICKSBRG* PTCLDY    34  25  68 CALM      30.13R
STAFFORD*      CLEAR     29  23  77 CALM      30.17R
WARRENTON      CLOUDY    31  28  90 CALM      30.12R
CULPEPER*      MOCLDY    27  25  93 CALM      30.12S
MANASSAS*      CLOUDY    34  25  69 NW14      30.13S WCI  24
LEESBURG*      CLOUDY    34  27  75 NW10      30.13R
WINCHESTER     CLOUDY    34  19  55 NW16G23   30.11R WCI  23
FRONT ROYAL*   CLOUDY    32  23  69 NW3       30.11S
LURAY*         PTSUNNY   28  27  93 CALM      30.11R
$$

VAZ048-049-060>072-079>083-191200-
CENTRAL AND SOUTH CENTRAL VIRGINIA

CITY           SKY/WX    TMP DP  RH WIND       PRES   REMARKS
RICHMOND       PTCLDY    33  22  63 NW3       30.13R
CHESTERFIELD*  SUNNY     27  12  54 CALM      30.14R
PETERSBURG*    CLEAR     26  24  95 CALM      30.13R
HANOVER        CLEAR     29  25  85 CALM      30.14R
TAPPAHANNOCK*  CLOUDY    32  24  73 CALM      30.13R
QUINTON*       MOSUNNY   29  26  90 CALM      30.12R
CHARLOTTSVILLE CLEAR     30  22  72 CALM      30.10R
GORDONSVILLE*  SUNNY     26  23  89 CALM      30.12R
ORANGE*        CLEAR     28  25  86 CALM      30.14R
LOUISA*        CLEAR     27  25  93 CALM      30.11R
BUMPASS*       SUNNY     28  23  79 CALM      30.12R
FARMVILLE*     CLEAR     26  22  84 CALM      30.12R
CREWE*         SUNNY     26  23  91 CALM      30.12R
FORT PICKETT*  SUNNY     27  24  87 CALM      30.12R
CHASE CITY*    SUNNY     29  28  96 CALM      30.12R
CLARKSVILLE*   SUNNY     32  30  93 CALM      30.12R
SOUTH HILL*    CLEAR     28  24  87 CALM      30.17R
LAWRENCEVILLE* SUNNY     28  26  91 CALM      30.12R
EMPORIA*       CLEAR     27  25  93 CALM      30.14R
$$

VAZ088>098-191200-
SOUTHEAST VIRGINIA

CITY           SKY/WX    TMP DP  RH WIND       PRES   REMARKS
NORFOLK        CLEAR     36  28  73 NW3       30.10S
VIRGINIA BEACH CLEAR     30  26  85 CALM      30.10R
NORFOLK NAVAL  CLEAR     37  27  67 NW7       30.12R
WEST POINT*    CLOUDY    32  28  85 CALM      30.14R
SALUDA*        CLOUDY    35  25  67 N6        30.11S
NEWPORT NEWS   PTCLDY    30  24  78 CALM      30.12R
LANGLEY AFB    CLOUDY    37  28  70 N6        30.11S
FORT EUSTIS    CLEAR     33  26  72 N5        30.11R
WILLIAMSBURG*  CLEAR     30  28  93 N5        30.13R
HR EXEC AP*    SUNNY     23  19  86 CALM      30.13S
FRANKLIN*      CLEAR     27  27 100 CALM      30.12R
WAKEFIELD      CLEAR     27  24  89 CALM      30.13R
$$

VAZ020-022-025-037-045-191200-
WEST CENTRAL AND SOUTHWEST VIRGINIA

CITY           SKY/WX    TMP DP  RH WIND       PRES   REMARKS
STAUNTON*      CLEAR     23  20  88 CALM      30.12R
WAYNESBORO*    SUNNY     28  22  80 N3        30.09R
HOT SPRINGS VA CLOUDY    20  20 100 W12       29.97R WCI   9
LYNCHBURG      CLEAR     26  23  88 CALM      30.11R
DANVILLE       CLEAR     37  20  50 NW6       30.13R
SOUTH BOSTON*  SUNNY     29  27  90 CALM      30.13R
MARTINSVILLE   CLEAR     38  19  46 N9        30.14R
ROANOKE        CLEAR     34  19  54 NW10      30.15R
BLACKSBURG     MOCLDY    28  22  75 W7        30.14R
DUBLIN*        CLOUDY    33  24  71 W5        30.13R
MARION*        CLOUDY    34  14  44 NW13      30.12R WCI  25
HILLSVILLE*    CLOUDY    31  20  64 NW8       30.07S
RICHLANDS*     CLOUDY    29  23  77 NW3       30.12R
WISE*          CLOUDY    32  27  80 N5        30.12S
ABINGDON*      CLOUDY    36  23  58 NW3       30.13R
$$

MDZ021>025-VAZ099-100-191200-
SOUTHERN MARYLAND AND THE DELMARVA PENINSULA

CITY           SKY/WX    TMP DP  RH WIND       PRES   REMARKS
PATUXENT RIVER MOCLDY    35  23  61 NW16      30.11S
BAY BRIDGE APT   N/A     34  25  69 W10       30.11R
LEONARDTOWN    CLOUDY    34  23  64 NW3       30.12F
DOVER          CLOUDY    35  26  67 W8        30.05S
GEORGETOWN     CLOUDY    35  25  66 VRB6      30.09R
EASTON         CLOUDY    37  27  65 NW10      30.13S
CAMBRIDGE      PTCLDY    37  27  65 NW10      30.10R
SALISBURY      MOCLDY    36  25  64 NW9       30.09R
OCEAN CITY     CLOUDY    34  25  69 NW6       30.08S
WALLOPS ISLAND MOCLDY    33  26  75 NW7       30.10R
ACCOMACK*      PTCLDY    34  28  80 NW7       30.10R
$$

NCZ012>017-030>032-191200-
NORTH CENTRAL AND EASTERN NORTH CAROLINA

CITY           SKY/WX    TMP DP  RH WIND       PRES   REMARKS
ROANOKE RAPIDS SUNNY     28  28 100 CALM      30.13R
RALEIGH        MOCLDY    40  30  67 CALM      30.13R
ELIZABETH CITY CLEAR     39  31  72 N6        30.11R
AHOSKIE*       CLEAR     27  26  96 CALM      30.13R
EDENTON*         N/A     31  29  93 CALM      30.11R
CURRITUCK*     CLEAR     34  31  88 CALM      30.11R
KILL DEVIL HLS CLEAR     39  34  81 CALM      30.08S
MANTEO         CLEAR     34  33  96 N5        30.10R
CAPE HATTERAS  CLOUDY    44  38  79 NW5       30.09R
TARBORO*       CLOUDY    30  30 100 CALM      30.13R
GOLDSBORO      CLOUDY    37  37  98 CALM      30.11R
WASHINGTON     CLEAR     32  32  97 CALM      30.11S
GREENVILLE     CLEAR     32  32 100 CALM      30.13R FOG
NEW BERN       PTCLDY    36  32  85 CALM      30.12R
WILMINGTON     PTCLDY    34  32  92 NE3       30.12R
$$

VAZ048-191200-
ELSEWHERE

CITY           SKY/WX    TMP DP  RH WIND       PRES   REMARKS
HARRISBURG PA  CLOUDY    34  24  67 NW9       30.06S
BALTIMORE      CLOUDY    34  23  64 W7        30.10R
ANNAPOLIS      CLOUDY    35  24  64 NW7       30.11R
ANDREWS AFB    CLOUDY    34  21  60 NW9       30.10S
PHILADELPHIA   CLOUDY    37  24  59 W10       30.05S
HENDERSON NC   CLEAR     35  26  69 CALM      30.12R
GREENSBORO     CLOUDY    41  24  51 N3        30.11R
ROCKY MOUNT    CLOUDY    35  33  92 CALM      30.12R
$$

VAZ100-191200-
MARINE

STATION/POSITION TIME  TEMP    WIND        PRES    WAVE   SWELL
                       AIR SEA DIR/SP/G            HT/PER HT/PER
                 (UTC) (F)     (DEG/KT/KT) (MB)    (FT/S) (FT/S)
CAPE MAY NJ      1100   37 42  310/  7/ 17 1017.4R
LEWES DE         1100   36 42  300/ 14/ 17 1018.0S
15NM E FENWICK I 1100   38 47              1017.1R   4/ 5
OCEAN-CITY-INLET 1100   36 45  320/  7/  9 1018.1R
WACHAPREAGUE VA  1100   35 43  300/  1/  4 1019.0R
THOMAS POINT MD  1100   35 41  300/ 12/ 14 1020.6R
GOOSES REEF MD   1100   36     VRB 14/ 17  1018.7S
COVE POINT MD    1100   35     340/ 13/ 16 1019.1F
SOLOMONS ISLAND  1100      44                N/A
BISHOPS HEAD MD  1100   34 38  330/  7/ 10 1018.7F
PINEY POINT MD   1100          350/ 13/ 14   N/A
POTOMAC MD       1100   36     350/ 10/ 14 1018.6F
CAMBRIDGE MD     1100   36 41  310/ 11/ 15 1019.0S
LEWISETTA VA     1100   36 43  350/ 10/ 13 1019.6R
RAPPAHANNOCK LGT 1100          330/ 14/ 17 1019.7R
STINGRAY PT      1100   37     340/ 12/ 14 1020.1R
YORK RVR RNG VA  1100   36     330/ 10/ 12 1019.3R
YORKTOWN VA      1100   35 45  350/  9/ 10 1019.5R
JAMESTOWN VA     1100   33      10/  4/  6   N/A
DOMINION TERM VA 1100   37      60/  2/  3 1019.6R
KIPTOPEKE VA     1100      49  360/  8/ 12   N/A
CHES BAY BRIDGE  1100   39 45  330/  9/ 11 1018.8R
CAPE HENRY VA    1100   39     320/ 11/ 12 1018.0R
CHESAPEAKE LGHT  1000   39     330/ 11/ 13 1019.6R
WILLOUBY STN VA  1100   37     340/  8/ 10 1020.0R
S CRANEY ISL VA  1100          340/  5/  7 1019.4R
CAPE HENRY BUOY  1100      48                N/A     2/ 5
1ST LANDING BUOY 1100   40     330/ 10/ 12 1018.7R
CAPE CHARLES BUO 1100      48                N/A     2/11   2/11
64NM E OF VA BCH 1100   44 55  330/ 12/ 16 1018.0R   3/ 5   2/ 6
DUCK PIER NC     1100   41 47  330/  8/  9 1018.1F
44100 DUCK FRF   1100      51                N/A     2/ 6
44056 DUCK FRF   1100      48                N/A     2/ 5
OREGON INLET NC  1100   40 50  330/  4/  5 1018.8R
HATTERAS NC      1100   46 53  300/  8/  9 1019.0R
DIAMOND SHLS NC  1100   47                 1019.0R   2/ 9
CAPE LOOKOUT NC  1000   48     330/  6/  7 1018.4F
$$


USA.gov is the U.S. government's official web portal to all federal, state and local government web resources and services.